| time (UTC) | temp F | wind direction | speed MPH | gust MPH | rain 1hr in | rain 24hr in | rain mn in | humidity % | barometer mb |
| 20260507040458 | 59 | 0.0 | 0.0 | 0.00 | 0.12 | 0.00 | 94 | 1007.4 | |
| 20260507035923 | 59 | 0.0 | 0.0 | 0.00 | 0.12 | 0.12 | 94 | 1007.5 | |
| 20260507035358 | 59 | 0.0 | 0.0 | 0.00 | 0.12 | 0.12 | 94 | 1007.6 | |
| 20260507034857 | 59 | 0.0 | 0.0 | 0.00 | 0.12 | 0.12 | 94 | 1007.7 | |
| 20260507034358 | 59 | 0.0 | 0.0 | 0.00 | 0.12 | 0.12 | 94 | 1007.6 | |
| 20260507033839 | 59 | 0.0 | 0.0 | 0.00 | 0.12 | 0.12 | 94 | 1007.6 | |
| 20260507033325 | 59 | 0.0 | 0.0 | 0.00 | 0.12 | 0.12 | 94 | 1007.6 | |
| 20260507032822 | 59 | 0.0 | 0.0 | 0.00 | 0.12 | 0.12 | 94 | 1007.5 | |
| 20260507032307 | 59 | 0.0 | 0.0 | 0.00 | 0.12 | 0.12 | 94 | 1007.4 | |
| 20260507031805 | 58 | 0.0 | 0.0 | 0.00 | 0.12 | 0.12 | 93 | 1007.3 | |
| 20260507031303 | 58 | 0.0 | 0.0 | 0.00 | 0.12 | 0.12 | 93 | 1007.2 | |
| 20260507030943 | 58 | 0.0 | 0.0 | 0.00 | 0.12 | 0.12 | 93 | 1007.2 | |
| 20260507030203 | 58 | 0.0 | 0.0 | 0.00 | 0.12 | 0.12 | 93 | 1007.2 | |
| 20260507025652 | 58 | 0.0 | 0.0 | 0.00 | 0.12 | 0.12 | 93 | 1007.2 | |
| 20260507025153 | 58 | 0.0 | 0.0 | 0.00 | 0.12 | 0.12 | 93 | 1007.2 | |
| 20260507024617 | 58 | 0.0 | 0.0 | 0.00 | 0.12 | 0.12 | 93 | 1007.0 | |
| 20260507024102 | 58 | 0.0 | 0.0 | 0.00 | 0.12 | 0.12 | 93 | 1007.0 | |
| 20260507023601 | 58 | 0.0 | 0.0 | 0.00 | 0.12 | 0.12 | 93 | 1007.0 | |
| 20260507023059 | 58 | 0.0 | 0.0 | 0.00 | 0.12 | 0.12 | 93 | 1007.1 | |
| 20260507022051 | 58 | 0.0 | 0.0 | 0.00 | 0.12 | 0.12 | 93 | 1007.0 | |
| 20260507021551 | 58 | 0.0 | 0.0 | 0.00 | 0.12 | 0.12 | 93 | 1007.0 | |
| 20260507021022 | 58 | 0.0 | 0.0 | 0.00 | 0.12 | 0.12 | 93 | 1007.0 | |
| 20260507020505 | 58 | 0.0 | 0.0 | 0.00 | 0.12 | 0.12 | 93 | 1007.0 | |
| 20260507020222 | 58 | 0.0 | 0.0 | 0.00 | 0.12 | 0.12 | 93 | 1007.2 | |
| 20260507015458 | 58 | 0.0 | 0.0 | 0.00 | 0.12 | 0.12 | 93 | 1007.2 | |
| 20260507015409 | 58 | 0.0 | 0.0 | 0.00 | 0.12 | 0.12 | 93 | 1007.0 | |
| 20260507014643 | 58 | 0.0 | 0.0 | 0.00 | 0.12 | 0.12 | 93 | 1007.0 | |
| 20260507013922 | 58 | 0.0 | 0.0 | 0.00 | 0.12 | 0.12 | 93 | 1007.2 | |
| 20260507013422 | 58 | 0.0 | 0.0 | 0.00 | 0.12 | 0.12 | 93 | 1007.2 | |
| 20260507012918 | 58 | 0.0 | 0.0 | 0.00 | 0.12 | 0.12 | 93 | 1007.3 | |
| 20260507012401 | 58 | 0.0 | 0.0 | 0.00 | 0.12 | 0.12 | 93 | 1007.4 | |
| 20260507011902 | 58 | 0.0 | 0.0 | 0.00 | 0.12 | 0.12 | 93 | 1007.4 | |
| 20260507011347 | 58 | 0.0 | 0.0 | 0.00 | 0.12 | 0.12 | 93 | 1007.5 | |
| 20260507011111 | 58 | 0.0 | 0.0 | 0.00 | 0.12 | 0.12 | 93 | 1007.6 | |
| 20260507010345 | 58 | 0.0 | 0.0 | 0.00 | 0.12 | 0.12 | 92 | 1007.5 | |
| 20260507010046 | 58 | 0.0 | 0.0 | 0.00 | 0.12 | 0.12 | 92 | 1007.6 | |
| 20260507005317 | 58 | 0.0 | 0.0 | 0.00 | 0.12 | 0.12 | 92 | 1007.6 | |
| 20260507004809 | 58 | 0.0 | 0.0 | 0.01 | 0.12 | 0.12 | 92 | 1007.6 | |
| 20260507004304 | 58 | 0.0 | 0.0 | 0.01 | 0.12 | 0.12 | 92 | 1007.6 | |
| 20260507003759 | 58 | 0.0 | 0.0 | 0.01 | 0.12 | 0.12 | 92 | 1007.6 | |
| 20260507003301 | 58 | 0.0 | 0.0 | 0.01 | 0.12 | 0.12 | 92 | 1007.5 | |
| 20260507002801 | 58 | 0.0 | 0.0 | 0.01 | 0.12 | 0.12 | 92 | 1007.5 | |
| 20260507002253 | 58 | 0.0 | 0.0 | 0.01 | 0.12 | 0.12 | 92 | 1007.5 | |
| 20260507001752 | 58 | 0.0 | 0.0 | 0.02 | 0.12 | 0.12 | 92 | 1007.4 | |
| 20260507001727 | 58 | 0.0 | 0.0 | 0.03 | 0.12 | 0.12 | 92 | 1007.4 | |
| 20260507000737 | 58 | 0.0 | 0.0 | 0.04 | 0.12 | 0.12 | 92 | 1007.3 | |
| 20260507000221 | 58 | 0.0 | 0.0 | 0.04 | 0.12 | 0.12 | 92 | 1007.3 | |
| 20260506235945 | 58 | 0.0 | 0.0 | 0.04 | 0.12 | 0.12 | 91 | 1007.2 | |
| 20260506235200 | 59 | 0.0 | 0.0 | 0.04 | 0.12 | 0.12 | 91 | 1007.2 | |
| 20260506234701 | 59 | 0.0 | 0.0 | 0.03 | 0.11 | 0.11 | 91 | 1007.1 | |
| 20260506234133 | 59 | 0.0 | 0.0 | 0.03 | 0.11 | 0.11 | 91 | 1007.2 | |
| 20260506233632 | 59 | 0.0 | 0.0 | 0.03 | 0.11 | 0.11 | 91 | 1007.1 | |
| 20260506233102 | 59 | 0.0 | 0.0 | 0.03 | 0.11 | 0.11 | 91 | 1007.1 | |
| 20260506232600 | 59 | 0.0 | 0.0 | 0.03 | 0.11 | 0.11 | 91 | 1007.1 | |
| 20260506232047 | 59 | 0.0 | 0.0 | 0.03 | 0.11 | 0.11 | 91 | 1007.0 | |
| 20260506231540 | 59 | 0.0 | 0.0 | 0.01 | 0.09 | 0.10 | 91 | 1007.0 | |
| 20260506231302 | 59 | 0.0 | 0.0 | 0.00 | 0.08 | 0.08 | 91 | 1007.3 | |
| 20260506230748 | 59 | 0.0 | 0.0 | 0.00 | 0.08 | 0.08 | 91 | 1007.1 | |
| 20260506230248 | 60 | 0.0 | 0.0 | 0.00 | 0.08 | 0.08 | 91 | 1007.2 | |
| 20260506225501 | 60 | 0.0 | 0.0 | 0.00 | 0.08 | 0.08 | 91 | 1007.2 | |
| 20260506224956 | 60 | 0.0 | 0.0 | 0.00 | 0.08 | 0.08 | 91 | 1007.2 | |
| 20260506224713 | 60 | 0.0 | 0.0 | 0.01 | 0.08 | 0.08 | 91 | 1007.2 | |
| 20260506223949 | 60 | 0.0 | 0.0 | 0.01 | 0.08 | 0.08 | 91 | 1007.2 | |
| 20260506223451 | 60 | 0.0 | 0.0 | 0.01 | 0.08 | 0.08 | 91 | 1007.2 | |
| 20260506223209 | 60 | 0.0 | 0.0 | 0.02 | 0.08 | 0.08 | 90 | 1007.2 | |
| 20260506222440 | 60 | 0.0 | 0.0 | 0.02 | 0.08 | 0.08 | 90 | 1007.4 | |
| 20260506221933 | 60 | 0.0 | 0.0 | 0.03 | 0.08 | 0.08 | 90 | 1007.4 | |
| 20260506221649 | 60 | 0.0 | 0.0 | 0.03 | 0.08 | 0.08 | 90 | 1007.6 | |
| 20260506220931 | 61 | 148 | 0.0 | 0.0 | 0.04 | 0.08 | 0.08 | 90 | 1007.5 |
| 20260506220425 | 61 | 148 | 0.0 | 0.0 | 0.04 | 0.08 | 0.08 | 90 | 1007.5 |
| 20260506215923 | 61 | 148 | 0.0 | 1.0 | 0.04 | 0.08 | 0.08 | 89 | 1007.6 |
| 20260506215421 | 61 | 148 | 0.0 | 1.0 | 0.05 | 0.08 | 0.08 | 89 | 1007.5 |
| 20260506215409 | 61 | 157 | 0.0 | 1.0 | 0.06 | 0.08 | 0.08 | 89 | 1007.5 |
| 20260506214421 | 61 | 158 | 0.0 | 2.0 | 0.05 | 0.07 | 0.08 | 89 | 1007.5 |
| 20260506213922 | 61 | 157 | 0.0 | 3.0 | 0.05 | 0.07 | 0.07 | 89 | 1007.8 |
| 20260506213422 | 61 | 156 | 0.0 | 3.0 | 0.05 | 0.07 | 0.07 | 89 | 1007.9 |
| 20260506212921 | 61 | 95 | 0.0 | 4.0 | 0.04 | 0.06 | 0.06 | 88 | 1007.9 |
| 20260506212421 | 61 | 157 | 0.0 | 4.0 | 0.05 | 0.06 | 0.06 | 88 | 1008.0 |
| 20260506211921 | 62 | 195 | 0.0 | 1.0 | 0.04 | 0.05 | 0.05 | 88 | 1008.0 |
| 20260506211421 | 62 | 207 | 0.0 | 3.0 | 0.04 | 0.05 | 0.05 | 88 | 1007.9 |
| 20260506210922 | 62 | 207 | 0.0 | 3.0 | 0.03 | 0.04 | 0.04 | 88 | 1007.9 |
| 20260506210421 | 62 | 320 | 0.0 | 2.0 | 0.03 | 0.04 | 0.04 | 87 | 1007.9 |
| 20260506205921 | 62 | 320 | 0.0 | 4.0 | 0.03 | 0.04 | 0.04 | 87 | 1007.9 |
| 20260506205421 | 62 | 320 | 1.0 | 4.0 | 0.02 | 0.03 | 0.03 | 86 | 1008.0 |
| 20260506204921 | 62 | 37 | 1.0 | 3.0 | 0.01 | 0.02 | 0.02 | 86 | 1008.2 |
| 20260506204421 | 62 | 112 | 1.0 | 3.0 | 0.01 | 0.02 | 0.02 | 85 | 1008.1 |
| 20260506203921 | 62 | 114 | 1.0 | 6.0 | 0.02 | 0.02 | 0.02 | 85 | 1008.1 |
| 20260506203421 | 62 | 223 | 1.0 | 6.0 | 0.02 | 0.02 | 0.02 | 85 | 1008.3 |
| 20260506202922 | 63 | 111 | 0.0 | 3.0 | 0.02 | 0.02 | 0.02 | 83 | 1008.3 |
| 20260506202410 | 63 | 107 | 0.0 | 2.0 | 0.01 | 0.01 | 0.01 | 83 | 1008.3 |
| 20260506201908 | 63 | 107 | 1.0 | 3.0 | 0.01 | 0.01 | 0.01 | 82 | 1008.3 |
| 20260506201622 | 63 | 133 | 1.0 | 7.0 | 0.01 | 0.01 | 0.01 | 82 | 1008.3 |
| 20260506200905 | 64 | 129 | 1.0 | 7.0 | 0.01 | 0.01 | 0.01 | 81 | 1008.3 |
| 20260506200405 | 64 | 96 | 0.0 | 2.0 | 0.01 | 0.01 | 0.01 | 81 | 1008.3 |
| 20260506195900 | 64 | 96 | 0.0 | 6.0 | 0.01 | 0.01 | 0.01 | 80 | 1008.2 |
| 20260506195326 | 65 | 96 | 0.0 | 6.0 | 0.01 | 0.01 | 0.01 | 80 | 1008.2 |
| 20260506194821 | 65 | 3 | 0.0 | 1.0 | 0.01 | 0.01 | 0.01 | 79 | 1008.1 |
| 20260506194321 | 65 | 3 | 0.0 | 1.0 | 0.01 | 0.01 | 0.01 | 78 | 1008.3 |
| 20260506193821 | 65 | 3 | 0.0 | 3.0 | 0.00 | 0.00 | 0.00 | 77 | 1008.5 |
| 20260506193321 | 66 | 3 | 1.0 | 5.0 | 0.00 | 0.00 | 0.00 | 76 | 1008.4 |
| 20260506192820 | 66 | 190 | 1.0 | 5.0 | 0.00 | 0.00 | 0.00 | 75 | 1008.5 |
| 20260506192321 | 67 | 109 | 0.0 | 3.0 | 0.00 | 0.00 | 0.00 | 74 | 1008.4 |
| 20260506191803 | 67 | 159 | 0.0 | 2.0 | 0.00 | 0.00 | 0.00 | 73 | 1008.6 |
| 20260506191303 | 68 | 162 | 0.0 | 5.0 | 0.00 | 0.00 | 0.00 | 72 | 1008.5 |
| 20260506190758 | 68 | 162 | 0.0 | 5.0 | 0.00 | 0.00 | 0.00 | 71 | 1008.5 |
| 20260506190526 | 68 | 57 | 0.0 | 2.0 | 0.00 | 0.00 | 0.00 | 70 | 1008.4 |
| 20260506185800 | 69 | 51 | 0.0 | 3.0 | 0.00 | 0.00 | 0.00 | 68 | 1008.4 |
| 20260506185300 | 69 | 148 | 0.0 | 8.0 | 0.00 | 0.00 | 0.00 | 67 | 1008.3 |
| 20260506184801 | 69 | 28 | 1.0 | 8.0 | 0.00 | 0.00 | 0.00 | 67 | 1008.4 |
| 20260506184512 | 69 | 114 | 0.0 | 3.0 | 0.00 | 0.00 | 0.00 | 66 | 1008.4 |
| 20260506184015 | 69 | 170 | 0.0 | 5.0 | 0.00 | 0.00 | 0.00 | 65 | 1008.5 |
| 20260506183250 | 70 | 160 | 0.0 | 5.0 | 0.00 | 0.00 | 0.00 | 64 | 1008.5 |
| 20260506182751 | 70 | 16 | 1.0 | 5.0 | 0.00 | 0.00 | 0.00 | 63 | 1008.5 |
| 20260506182248 | 70 | 51 | 1.0 | 5.0 | 0.00 | 0.00 | 0.00 | 62 | 1008.5 |
| 20260506181748 | 71 | 54 | 1.0 | 3.0 | 0.00 | 0.00 | 0.00 | 62 | 1008.5 |
| 20260506181509 | 71 | 113 | 1.0 | 3.0 | 0.00 | 0.00 | 0.00 | 61 | 1008.5 |
| 20260506181010 | 72 | 136 | 1.0 | 4.0 | 0.00 | 0.00 | 0.00 | 61 | 1008.7 |
| 20260506180246 | 72 | 49 | 1.0 | 4.0 | 0.00 | 0.00 | 0.00 | 60 | 1008.7 |
| 20260506175734 | 72 | 170 | 1.0 | 5.0 | 0.00 | 0.00 | 0.00 | 60 | 1008.8 |
| 20260506175230 | 73 | 163 | 1.0 | 6.0 | 0.00 | 0.00 | 0.00 | 59 | 1008.9 |
| 20260506174710 | 73 | 35 | 1.0 | 6.0 | 0.00 | 0.00 | 0.00 | 60 | 1009.1 |
| 20260506174206 | 73 | 116 | 1.0 | 9.0 | 0.00 | 0.00 | 0.00 | 61 | 1009.0 |
| 20260506173705 | 73 | 113 | 1.0 | 9.0 | 0.00 | 0.00 | 0.00 | 62 | 1009.1 |
| 20260506173206 | 73 | 162 | 1.0 | 10.0 | 0.00 | 0.00 | 0.00 | 61 | 1009.0 |
| 20260506172700 | 73 | 152 | 1.0 | 10.0 | 0.00 | 0.00 | 0.00 | 60 | 1009.1 |
| 20260506172159 | 73 | 134 | 1.0 | 6.0 | 0.00 | 0.00 | 0.00 | 60 | 1009.0 |
| 20260506171659 | 74 | 154 | 1.0 | 3.0 | 0.00 | 0.00 | 0.00 | 61 | 1009.1 |
| 20260506171200 | 74 | 17 | 1.0 | 6.0 | 0.00 | 0.00 | 0.00 | 60 | 1009.1 |
| 20260506170650 | 74 | 47 | 1.0 | 6.0 | 0.00 | 0.00 | 0.00 | 61 | 1009.0 |
| 20260506170151 | 73 | 105 | 2.0 | 6.0 | 0.00 | 0.00 | 0.00 | 60 | 1008.9 |
| 20260506165649 | 72 | 253 | 2.0 | 4.0 | 0.00 | 0.00 | 0.00 | 64 | 1009.2 |
| 20260506165149 | 72 | 57 | 2.0 | 4.0 | 0.00 | 0.00 | 0.00 | 62 | 1009.2 |
| 20260506164650 | 72 | 200 | 1.0 | 4.0 | 0.00 | 0.00 | 0.00 | 62 | 1009.4 |
| 20260506164150 | 72 | 173 | 1.0 | 6.0 | 0.00 | 0.00 | 0.00 | 61 | 1009.5 |
| 20260506163649 | 72 | 129 | 1.0 | 6.0 | 0.00 | 0.00 | 0.00 | 64 | 1009.5 |
| 20260506163148 | 72 | 52 | 1.0 | 6.0 | 0.00 | 0.00 | 0.00 | 64 | 1009.6 |
| 20260506162914 | 72 | 57 | 1.0 | 6.0 | 0.00 | 0.00 | 0.00 | 63 | 1009.6 |
| 20260506162148 | 72 | 115 | 0.0 | 6.0 | 0.00 | 0.00 | 0.00 | 64 | 1009.7 |
| 20260506161651 | 72 | 111 | 1.0 | 6.0 | 0.00 | 0.00 | 0.00 | 64 | 1009.8 |
| 20260506161142 | 72 | 337 | 1.0 | 4.0 | 0.00 | 0.00 | 0.00 | 63 | 1009.8 |
| 20260506160640 | 72 | 127 | 1.0 | 4.0 | 0.00 | 0.00 | 0.00 | 63 | 1009.9 |
| 20260506160140 | 72 | 78 | 1.0 | 3.0 | 0.00 | 0.00 | 0.00 | 64 | 1010.0 |
| 20260506155638 | 72 | 155 | 0.0 | 3.0 | 0.00 | 0.00 | 0.00 | 63 | 1010.0 |
| 20260506155123 | 72 | 99 | 1.0 | 4.0 | 0.00 | 0.00 | 0.00 | 64 | 1010.2 |
| 20260506154623 | 72 | 101 | 1.0 | 4.0 | 0.00 | 0.00 | 0.00 | 63 | 1010.3 |
| 20260506154106 | 72 | 13 | 1.0 | 6.0 | 0.00 | 0.00 | 0.00 | 63 | 1010.3 |
| 20260506153828 | 72 | 45 | 1.0 | 6.0 | 0.00 | 0.00 | 0.00 | 62 | 1010.4 |
| 20260506153101 | 72 | 19 | 1.0 | 5.0 | 0.00 | 0.00 | 0.00 | 64 | 1010.3 |
| 20260506152820 | 72 | 74 | 0.0 | 4.0 | 0.00 | 0.00 | 0.00 | 64 | 1010.4 |
| 20260506152056 | 71 | 140 | 0.0 | 4.0 | 0.00 | 0.00 | 0.00 | 64 | 1010.4 |
| 20260506151553 | 71 | 324 | 0.0 | 4.0 | 0.00 | 0.00 | 0.00 | 65 | 1010.5 |
| 20260506151054 | 71 | 324 | 1.0 | 4.0 | 0.00 | 0.00 | 0.00 | 65 | 1010.5 |
| 20260506150539 | 71 | 84 | 1.0 | 4.0 | 0.00 | 0.00 | 0.00 | 65 | 1010.6 |
| 20260506150310 | 71 | 83 | 1.0 | 4.0 | 0.00 | 0.00 | 0.00 | 65 | 1010.6 |
| 20260506145539 | 71 | 163 | 1.0 | 6.0 | 0.00 | 0.00 | 0.00 | 67 | 1010.6 |
| 20260506145024 | 70 | 126 | 2.0 | 6.0 | 0.00 | 0.00 | 0.00 | 67 | 1010.6 |
| 20260506144522 | 70 | 149 | 2.0 | 5.0 | 0.00 | 0.00 | 0.00 | 66 | 1010.4 |
| 20260506144023 | 70 | 54 | 1.0 | 4.0 | 0.00 | 0.00 | 0.00 | 67 | 1010.5 |
| 20260506143523 | 70 | 123 | 1.0 | 5.0 | 0.00 | 0.00 | 0.00 | 68 | 1010.5 |
| 20260506143023 | 69 | 143 | 1.0 | 5.0 | 0.00 | 0.00 | 0.00 | 69 | 1010.4 |
| 20260506142522 | 69 | 111 | 1.0 | 3.0 | 0.00 | 0.00 | 0.00 | 69 | 1010.4 |
| 20260506142244 | 69 | 109 | 1.0 | 4.0 | 0.00 | 0.00 | 0.00 | 70 | 1010.4 |
| 20260506141523 | 69 | 100 | 1.0 | 8.0 | 0.00 | 0.00 | 0.00 | 70 | 1010.4 |
| 20260506141022 | 68 | 234 | 1.0 | 8.0 | 0.00 | 0.00 | 0.00 | 72 | 1010.5 |
| 20260506140522 | 68 | 7 | 1.0 | 3.0 | 0.00 | 0.00 | 0.00 | 73 | 1010.5 |
| 20260506140018 | 68 | 328 | 1.0 | 4.0 | 0.00 | 0.00 | 0.00 | 74 | 1010.5 |
| 20260506135513 | 67 | 277 | 1.0 | 5.0 | 0.00 | 0.00 | 0.00 | 73 | 1010.5 |
| 20260506135238 | 67 | 82 | 1.0 | 5.0 | 0.00 | 0.00 | 0.00 | 76 | 1010.5 |
| 20260506134458 | 66 | 113 | 1.0 | 5.0 | 0.00 | 0.00 | 0.00 | 75 | 1010.4 |
| 20260506134219 | 66 | 13 | 1.0 | 5.0 | 0.00 | 0.00 | 0.00 | 77 | 1010.7 |
| 20260506133500 | 65 | 233 | 0.0 | 4.0 | 0.00 | 0.00 | 0.00 | 77 | 1010.9 |
| 20260506132957 | 65 | 132 | 0.0 | 3.0 | 0.00 | 0.00 | 0.00 | 78 | 1011.1 |
| 20260506132456 | 65 | 142 | 1.0 | 3.0 | 0.00 | 0.00 | 0.00 | 78 | 1011.2 |
| 20260506131956 | 65 | 297 | 0.0 | 3.0 | 0.00 | 0.00 | 0.00 | 79 | 1011.1 |
| 20260506131454 | 64 | 185 | 0.0 | 1.0 | 0.00 | 0.00 | 0.00 | 80 | 1011.1 |
| 20260506130951 | 64 | 0.0 | 0.0 | 0.00 | 0.00 | 0.00 | 81 | 1011.1 | |
| 20260506130450 | 64 | 0.0 | 0.0 | 0.00 | 0.00 | 0.00 | 81 | 1010.9 | |
| 20260506125949 | 63 | 0.0 | 0.0 | 0.00 | 0.00 | 0.00 | 82 | 1010.9 | |
| 20260506125446 | 63 | 0.0 | 0.0 | 0.00 | 0.00 | 0.00 | 83 | 1010.9 | |
| 20260506124935 | 62 | 0.0 | 0.0 | 0.00 | 0.00 | 0.00 | 84 | 1011.1 | |
| 20260506124422 | 62 | 0.0 | 0.0 | 0.00 | 0.00 | 0.00 | 84 | 1011.0 | |
| 20260506123922 | 62 | 0.0 | 0.0 | 0.00 | 0.00 | 0.00 | 84 | 1011.1 | |
| 20260506123422 | 61 | 0.0 | 0.0 | 0.00 | 0.00 | 0.00 | 84 | 1011.1 | |
| 20260506122921 | 61 | 0.0 | 0.0 | 0.00 | 0.00 | 0.00 | 85 | 1011.2 | |
| 20260506122407 | 61 | 0.0 | 0.0 | 0.00 | 0.00 | 0.00 | 85 | 1011.1 | |
| 20260506121904 | 61 | 0.0 | 0.0 | 0.00 | 0.00 | 0.00 | 85 | 1011.1 | |
| 20260506121621 | 60 | 0.0 | 0.0 | 0.00 | 0.00 | 0.00 | 85 | 1011.0 | |
| 20260506120902 | 60 | 0.0 | 0.0 | 0.00 | 0.00 | 0.00 | 85 | 1011.0 | |
| 20260506120617 | 60 | 0.0 | 0.0 | 0.00 | 0.00 | 0.00 | 85 | 1011.1 | |
| 20260506115900 | 60 | 0.0 | 0.0 | 0.00 | 0.00 | 0.00 | 85 | 1011.4 | |
| 20260506115359 | 60 | 0.0 | 0.0 | 0.00 | 0.00 | 0.00 | 85 | 1011.5 | |
| 20260506114856 | 60 | 0.0 | 0.0 | 0.00 | 0.00 | 0.00 | 85 | 1011.4 | |
| 20260506114349 | 60 | 0.0 | 0.0 | 0.00 | 0.00 | 0.00 | 85 | 1011.4 | |
| 20260506113842 | 60 | 0.0 | 0.0 | 0.00 | 0.00 | 0.00 | 86 | 1011.7 | |
| 20260506113551 | 60 | 0.0 | 0.0 | 0.00 | 0.00 | 0.00 | 86 | 1011.7 | |
| 20260506112803 | 60 | 0.0 | 0.0 | 0.00 | 0.00 | 0.00 | 86 | 1011.6 | |
| 20260506112301 | 59 | 0.0 | 0.0 | 0.00 | 0.00 | 0.00 | 86 | 1011.6 | |
| 20260506111801 | 59 | 0.0 | 0.0 | 0.00 | 0.00 | 0.00 | 86 | 1011.6 | |
| 20260506111744 | 59 | 0.0 | 0.0 | 0.00 | 0.00 | 0.00 | 86 | 1011.5 | |
| 20260506110753 | 59 | 0.0 | 0.0 | 0.00 | 0.00 | 0.00 | 86 | 1011.4 | |
| 20260506110249 | 59 | 0.0 | 0.0 | 0.00 | 0.00 | 0.00 | 86 | 1011.4 | |
| 20260506110007 | 59 | 0.0 | 0.0 | 0.00 | 0.00 | 0.00 | 85 | 1011.4 | |
| 20260506105507 | 59 | 0.0 | 0.0 | 0.00 | 0.00 | 0.00 | 85 | 1011.4 | |
| 20260506104728 | 59 | 0.0 | 0.0 | 0.00 | 0.00 | 0.00 | 85 | 1011.4 | |
| 20260506104223 | 59 | 0.0 | 0.0 | 0.00 | 0.00 | 0.00 | 85 | 1011.5 | |
| 20260506104217 | 59 | 0.0 | 0.0 | 0.00 | 0.00 | 0.00 | 85 | 1011.6 | |
| 20260506103203 | 59 | 0.0 | 0.0 | 0.00 | 0.00 | 0.00 | 85 | 1011.5 | |
| 20260506102655 | 59 | 0.0 | 0.0 | 0.00 | 0.00 | 0.00 | 85 | 1011.5 | |
| 20260506102149 | 59 | 0.0 | 0.0 | 0.00 | 0.00 | 0.00 | 85 | 1011.5 | |
| 20260506101635 | 59 | 0.0 | 0.0 | 0.00 | 0.00 | 0.00 | 85 | 1011.4 | |
| 20260506101122 | 59 | 0.0 | 0.0 | 0.00 | 0.00 | 0.00 | 85 | 1011.3 | |
| 20260506100622 | 59 | 0.0 | 0.0 | 0.00 | 0.00 | 0.00 | 85 | 1011.3 | |
| 20260506100105 | 59 | 0.0 | 0.0 | 0.00 | 0.00 | 0.00 | 85 | 1011.3 | |
| 20260506095605 | 59 | 0.0 | 0.0 | 0.00 | 0.00 | 0.00 | 84 | 1011.3 | |
| 20260506095103 | 59 | 0.0 | 0.0 | 0.00 | 0.00 | 0.00 | 84 | 1011.2 | |
| 20260506094603 | 59 | 0.0 | 0.0 | 0.00 | 0.00 | 0.00 | 84 | 1011.1 | |
| 20260506094101 | 59 | 0.0 | 0.0 | 0.00 | 0.00 | 0.00 | 84 | 1011.1 | |
| 20260506093600 | 59 | 0.0 | 0.0 | 0.00 | 0.00 | 0.00 | 84 | 1011.1 | |
| 20260506093100 | 59 | 0.0 | 0.0 | 0.00 | 0.00 | 0.00 | 84 | 1011.3 | |
| 20260506092553 | 59 | 0.0 | 0.0 | 0.00 | 0.00 | 0.00 | 84 | 1011.2 | |
| 20260506092305 | 59 | 0.0 | 0.0 | 0.00 | 0.00 | 0.00 | 84 | 1011.1 | |
| 20260506091531 | 59 | 0.0 | 0.0 | 0.00 | 0.00 | 0.00 | 83 | 1011.1 | |
| 20260506090957 | 59 | 0.0 | 0.0 | 0.00 | 0.00 | 0.00 | 83 | 1011.1 | |
| 20260506090459 | 59 | 0.0 | 0.0 | 0.00 | 0.00 | 0.00 | 82 | 1011.1 | |
| 20260506090000 | 59 | 0.0 | 0.0 | 0.00 | 0.00 | 0.00 | 82 | 1011.1 | |
| 20260506085439 | 59 | 0.0 | 0.0 | 0.00 | 0.00 | 0.00 | 82 | 1011.3 | |
| 20260506084901 | 60 | 0.0 | 0.0 | 0.00 | 0.00 | 0.00 | 82 | 1011.4 | |
| 20260506084343 | 60 | 0.0 | 0.0 | 0.00 | 0.00 | 0.00 | 82 | 1011.4 | |
| 20260506083839 | 60 | 0.0 | 0.0 | 0.00 | 0.00 | 0.00 | 82 | 1011.3 | |
| 20260506083322 | 60 | 0.0 | 0.0 | 0.00 | 0.00 | 0.00 | 81 | 1011.4 | |
| 20260506082821 | 60 | 0.0 | 0.0 | 0.00 | 0.00 | 0.00 | 81 | 1011.4 | |
| 20260506082258 | 60 | 0.0 | 0.0 | 0.00 | 0.00 | 0.00 | 81 | 1011.4 | |
| 20260506081731 | 60 | 0.0 | 0.0 | 0.00 | 0.00 | 0.00 | 81 | 1011.3 | |
| 20260506081217 | 60 | 0.0 | 0.0 | 0.00 | 0.00 | 0.00 | 81 | 1011.2 | |
| 20260506080713 | 60 | 0.0 | 0.0 | 0.00 | 0.00 | 0.00 | 80 | 1011.3 | |
| 20260506080158 | 60 | 0.0 | 0.0 | 0.00 | 0.00 | 0.00 | 80 | 1011.2 | |
| 20260506080145 | 60 | 0.0 | 0.0 | 0.00 | 0.00 | 0.00 | 80 | 1011.4 | |
| 20260506073059 | 61 | 0.0 | 0.0 | 0.00 | 0.00 | 0.00 | 79 | 1011.2 | |
| 20260506072529 | 61 | 0.0 | 0.0 | 0.00 | 0.00 | 0.00 | 78 | 1011.2 | |
| 20260506072014 | 61 | 0.0 | 0.0 | 0.00 | 0.00 | 0.00 | 78 | 1011.2 | |
| 20260506071945 | 61 | 0.0 | 0.0 | 0.00 | 0.00 | 0.00 | 78 | 1011.1 | |
| 20260506070959 | 61 | 0.0 | 0.0 | 0.00 | 0.00 | 0.00 | 78 | 1011.1 | |
| 20260506070459 | 61 | 0.0 | 0.0 | 0.00 | 0.00 | 0.00 | 77 | 1011.1 | |
| 20260506070253 | 61 | 0.0 | 0.0 | 0.00 | 0.00 | 0.00 | 77 | 1011.1 | |
| 20260506070154 | 61 | 0.0 | 0.0 | 0.00 | 0.00 | 0.00 | 77 | 1011.0 | |
| 20260506062205 | 62 | 0.0 | 0.0 | 0.00 | 0.00 | 0.00 | 75 | 1010.9 | |
| 20260506061926 | 62 | 0.0 | 0.0 | 0.00 | 0.00 | 0.00 | 75 | 1010.9 | |
| 20260506061145 | 62 | 0.0 | 0.0 | 0.00 | 0.00 | 0.00 | 75 | 1011.0 | |
| 20260506060643 | 62 | 0.0 | 0.0 | 0.00 | 0.00 | 0.00 | 75 | 1010.9 | |
| 20260506060139 | 62 | 0.0 | 0.0 | 0.00 | 0.00 | 0.00 | 74 | 1011.0 | |
| 20260506050959 | 62 | 0.0 | 0.0 | 0.00 | 0.00 | 0.00 | 72 | 1011.4 | |
| 20260506050459 | 62 | 0.0 | 0.0 | 0.00 | 0.00 | 0.00 | 71 | 1011.2 | |
| 20260506045128 | 62 | 0.0 | 0.0 | 0.00 | 0.00 | 0.00 | 71 | 1011.4 | |
| 20260506044557 | 62 | 0.0 | 0.0 | 0.00 | 0.00 | 0.00 | 70 | 1011.5 | |
| 20260506043822 | 62 | 0.0 | 0.0 | 0.00 | 0.00 | 0.00 | 69 | 1011.4 | |
| 20260506043545 | 62 | 0.0 | 0.0 | 0.00 | 0.00 | 0.00 | 69 | 1011.5 | |
| 20260506042754 | 62 | 0.0 | 0.0 | 0.00 | 0.00 | 0.00 | 69 | 1011.5 | |
| 20260506042250 | 63 | 0.0 | 0.0 | 0.00 | 0.00 | 0.00 | 69 | 1011.6 | |
| 20260506041750 | 63 | 0.0 | 0.0 | 0.00 | 0.00 | 0.00 | 68 | 1011.6 | |
| 20260506041223 | 63 | 0.0 | 0.0 | 0.00 | 0.00 | 0.00 | 68 | 1011.5 | |
| 20260506040646 | 63 | 0.0 | 0.0 | 0.00 | 0.00 | 0.00 | 68 | 1011.6 |